Regional Weather Roundup
Issued by NWS Albany, NY

Home | Current Version | Previous Version | Graphics & Text | Print | Product List | Glossary Off
Versions: 1 2 3 4 5 6 7 8 9 10 11 12 13 14 15 16 17 18 19 20 21 22 23 24 25 26 27 28 29 30 31 32 33 34 35 36 37 38 39 40 41 42 43 44 45 46 47 48 49 50

000
ASUS41 KALY 201210
RWRALY

NEW YORK STATE HOURLY WEATHER ROUNDUP
NATIONAL WEATHER SERVICE ALBANY NY
700 AM EST MON NOV 20 2017

NOTE: "FAIR" INDICATES FEW OR NO CLOUDS BELOW 12,000 FEET WITH NO
SIGNIFICANT WEATHER AND/OR NO OBSTRUCTIONS TO VISIBILITY.

NYZ032-033-038>043-046>054-057>066-NYZ062>081-082-084-201300-
EAST


CITY           SKY/WX    TMP DP  RH WIND       PRES   REMARKS
ALBANY         CLOUDY    30  17  58 NW14      29.93R WCI  19
GLENS FALLS    CLOUDY    29  12  49 W8        29.89R WCI  21
POUGHKEEPSIE   PTCLDY    33  18  53 W8        29.95R WCI  26
NEWBURGH       PTCLDY    34  23  64 W12       29.95R WCI  25
MONTGOMERY     MOCLDY    33  19  56 W8        29.94R WCI  26
WHITE PLAINS   MOCLDY    35  22  58 W12       29.94R WCI  27
ISLIP          PTCLDY    36  22  56 W12       29.97R WCI  28
NEW YORK CITY  FLURRIES  39  27  62 W16G24    29.99R WCI  30
$$

NYZ005>009-017-018-044>046-055-056-201300-
CENTRAL


CITY           SKY/WX    TMP DP  RH WIND       PRES   REMARKS
FULTON         HVY SNOW  29  27  92 SE3       29.93R VSB 1/4
SYRACUSE       LGT SNOW  29  27  92 W8        29.93R FOG     WCI  21
ROME           CLOUDY    26  20  77 W6        29.95R WCI  19
ELMIRA         CLOUDY    33  25  72 W9        29.96R WCI  25
BINGHAMTON     FLURRIES  27  20  75 W10       29.90R WCI  17
MONTICELLO     CLOUDY    29  19  66 W12G17    29.90R WCI  19
$$

NYZ026>034-041>043-087-201300-
NORTH


CITY           SKY/WX    TMP DP  RH WIND       PRES   REMARKS
WATERTOWN      LGT SNOW  24  16  71 CALM      29.93R
FORT DRUM      NOT AVBL
OGDENSBURG     CLOUDY    22  15  74 W7        29.91S WCI  14
MASSENA        CLOUDY    20  12  71 W13       29.91R WCI   7
SARANAC LAKE   CLOUDY    16  11  80 W8G22     29.78R WCI   5
PLATTSBURGH    CLOUDY    24  11  57 W15G24    29.85R WCI  11
$$

NYZ001>004-010>016-019>021-085-201300-
WEST


CITY           SKY/WX    TMP DP  RH WIND       PRES   REMARKS
NIAGARA FALLS  CLOUDY    31  20  63 W17G26    29.98R WCI  19
BUFFALO        MOCLDY    31  20  63 W15       29.97R WCI  20
DUNKIRK        CLOUDY    35  26  69 W14G20    30.00S WCI  26
JAMESTOWN      FLURRIES  28  24  85 SW10      29.98R WCI  19
WELLSVILLE     CLOUDY    29  20  69 W20       29.94R WCI  16
ROCHESTER      CLOUDY    32  22  66 W13       29.95R WCI  22
PENN YAN       CLOUDY    32  17  54 W8        29.94R WCI  25
$$

             KEY
       WCI = WIND CHILL INDEX
       VSB = VISIBILITY
       HX  = HEAT INDEX
$$



USA.gov is the U.S. government's official web portal to all federal, state and local government web resources and services.